Akron Canton, OH

9:24 AM EDT on September 15, 2019 (GMT -0400)
Akron-Canton Regional

Weather History for KCAK - August, 2019

Change the Weather History Date:

Monday, August 19, 2019

  Actual Average Record
Temperature  
Mean Temperature 75 °F 70 °F  
Max Temperature 86 °F 80 °F 95 °F (1916)
Min Temperature 64 °F 61 °F 47 °F (1953)
Degree Days  
Heating Degree Days 0 0  
Month to date heating degree days 0 0  
Since 1 June heating degree days 25 55  
Since 1 July heating degree days 0 6  
Cooling Degree Days 10 6  
Month to date cooling degree days 188 123  
Year to date cooling degree days 804 522  
Since 1 June cooling degree days 720 480  
Growing Degree Days 25 (Base 50)    
Moisture  
Dew Point 67 °F    
Average Humidity 79    
Maximum Humidity 100    
Minimum Humidity 58    
Precipitation  
Precipitation 0.10 in 0.11 in 2.61 in (1990)
Month to date precipitation 1.00 2.21  
Year to date precipitation 33.02 25.85  
Snow  
Snow 0.00 in 0.00 in - ()
Month to date snowfall 0.0 0.0  
Since 1 June snowfall 0.0 0.0  
Since 1 July snowfall 0.0 0.0  
Snow Depth 0.00 in    
Sea Level Pressure  
Sea Level Pressure 30.03 in    
Wind  
Wind Speed 5 mph (West)    
Max Wind Speed 24 mph    
Max Gust Speed 30 mph    
Visibility 9 miles    
Events Fog , Rain , Thunderstorm    
T = Trace of Precipitation, MM = Missing Value Source: NWS Daily Summary

Daily Weather History Graph

Daily Weather History Graph

Search for Another Location

Airport or City:

Astronomy

Aug. 19, 2019 Rise Set
Actual Time 6:39 AM EDT 8:18 PM EDT
Civil Twilight 6:10 AM EDT 8:47 PM EDT
Nautical Twilight 5:34 AM EDT 9:22 PM EDT
Astronomical Twilight 4:57 AM EDT 10:00 PM EDT
Moon 10:37 PM EDT (8/19) 10:20 AM EDT (8/19)
Length of Visible Light 14h 37m
Length of Day
13h 39m
Waning Gibbous, 85% of the Moon is Illuminated
Aug 19
Waning Gibbous
Aug 23
Last Quarter
Aug 30
New
Sep 5
First Quarter
Sep 14
Full

Hourly Weather History & Observations

Time (EDT) Temp. Heat Index Dew Point Humidity Pressure Visibility Wind Dir Wind Speed Gust Speed Precip Events Conditions
12:40 AM 73.9 °F - 66.9 °F 79% 29.99 in 10.0 mi NW 25.3 mph 41.4 mph N/A   Mostly Cloudy
12:51 AM 72.0 °F - 66.0 °F 81% 29.98 in 7.0 mi NW 26.5 mph 35.7 mph 0.00 in Rain , Thunderstorm Light Thunderstorms and Rain
1:27 AM 69.1 °F - 66.0 °F 90% 30.03 in 9.0 mi NW 15.0 mph - 0.07 in Rain Light Rain
1:51 AM 68.0 °F - 66.0 °F 93% 30.00 in 6.0 mi NW 6.9 mph - 0.10 in Rain Light Rain
2:51 AM 68.0 °F - 66.0 °F 93% 29.94 in 10.0 mi SE 5.8 mph - 0.03 in   Scattered Clouds
3:51 AM 68.0 °F - 66.0 °F 93% 29.95 in 10.0 mi NW 5.8 mph - N/A   Mostly Cloudy
4:51 AM 66.9 °F - 64.9 °F 93% 29.95 in 9.0 mi SW 6.9 mph - N/A   Scattered Clouds
5:51 AM 66.0 °F - 64.0 °F 93% 29.98 in 5.0 mi WSW 5.8 mph - N/A   Scattered Clouds
6:51 AM 64.9 °F - 64.0 °F 97% 30.01 in 3.0 mi WSW 5.8 mph - N/A Fog Scattered Clouds
7:51 AM 66.0 °F - 64.9 °F 96% 30.03 in 5.0 mi SW 3.5 mph - N/A Fog Scattered Clouds
8:51 AM 70.0 °F - 64.9 °F 84% 30.04 in 7.0 mi Calm Calm - N/A   Scattered Clouds
9:51 AM 73.9 °F - 66.0 °F 76% 30.05 in 10.0 mi Variable 3.5 mph - N/A   Scattered Clouds
10:51 AM 77.0 °F - 64.9 °F 66% 30.06 in 10.0 mi Calm Calm - N/A   Scattered Clouds
11:51 AM 79.0 °F - 66.9 °F 66% 30.06 in 10.0 mi Calm Calm - N/A   Partly Cloudy
12:51 PM 81.0 °F 82.7 °F 64.9 °F 58% 30.06 in 10.0 mi SSW 8.1 mph - N/A   Partly Cloudy
1:51 PM 82.0 °F 84.5 °F 66.9 °F 60% 30.07 in 10.0 mi SW 8.1 mph - N/A   Scattered Clouds
2:51 PM 84.0 °F 87.8 °F 69.1 °F 61% 30.06 in 10.0 mi WNW 8.1 mph - N/A   Mostly Cloudy
3:51 PM 82.9 °F 86.5 °F 69.1 °F 63% 30.06 in 10.0 mi West 5.8 mph - N/A   Mostly Cloudy
4:51 PM 84.9 °F 88.2 °F 68.0 °F 57% 30.05 in 10.0 mi West 9.2 mph - N/A   Scattered Clouds
5:51 PM 84.9 °F 88.8 °F 69.1 °F 59% 30.03 in 10.0 mi WNW 5.8 mph - N/A   Partly Cloudy
6:51 PM 84.0 °F 87.8 °F 69.1 °F 61% 30.03 in 10.0 mi West 5.8 mph - N/A   Partly Cloudy
7:51 PM 81.0 °F 83.8 °F 68.0 °F 65% 30.03 in 10.0 mi WNW 3.5 mph - N/A   Partly Cloudy
8:51 PM 78.1 °F - 68.0 °F 71% 30.04 in 10.0 mi Calm Calm - N/A   Partly Cloudy
9:51 PM 75.9 °F - 69.1 °F 79% 30.06 in 10.0 mi Calm Calm - N/A   Partly Cloudy
10:51 PM 73.9 °F - 68.0 °F 82% 30.07 in 10.0 mi NNE 6.9 mph - N/A   Clear
11:51 PM 73.0 °F - 69.1 °F 87% 30.08 in 10.0 mi NE 5.8 mph - N/A   Clear